QPF
0.02 0.03 0.02 0.01 0.02 0.01 0.00 0.00 0.00 0.01 0.01 0.00 0.00 0.00 0.00 0.00 0.00 0.00 0.00 0.00 0.00 0.00 0.00 0.00 0.00 0.00 0.00 0.00 0.00 0.00 0.00 0.01 0.02 0.03 0.04 0.03 0.01 0.00
0.03 0.04 0.05 0.05 0.06 0.05 0.04 0.02 0.01 0.02 0.01 0.00 0.00 0.01 0.00 0.00 0.00 0.00 0.00 0.00 0.00 0.00 0.00 0.00 0.00 0.00 0.00 0.00 0.00 0.00 0.00 0.00 0.00 0.01 0.02 0.01 0.01 0.00
0.00 0.01 0.01 0.02 0.03 0.03 0.02 0.01 0.00 0.02 0.02 0.01 0.01 0.02 0.01 0.00 0.00 0.00 0.00 0.00 0.00 0.00 0.00 0.00 0.00 0.00 0.00 0.00 0.00 0.00 0.00 0.00 0.00 0.01 0.01 0.01 0.01 0.00
0.02 0.02 0.00 0.01 0.01 0.00 0.00 0.00 0.00 0.00 0.01 0.01 0.00 0.00 0.01 0.01 0.00 0.00 0.00 0.00 0.00 0.00 0.00 0.00 0.00 0.00 0.00 0.00 0.00 0.00 0.00 0.00 0.01 0.01 0.01 0.01 0.01 0.00
0.03 0.04 0.02 0.01 0.01 0.00 0.00 0.00 0.00 0.00 0.01 0.01 0.01 0.00 0.00 0.00 0.00 0.00 0.00 0.00 0.00 0.00 0.00 0.00 0.00 0.00 0.00 0.00 0.00 0.01 0.03 0.03 0.03 0.01 0.01 0.01 0.00 0.00
0.05 0.05 0.07 0.06 0.06 0.04 0.01 0.00 0.01 0.01 0.02 0.03 0.01 0.00 0.00 0.00 0.00 0.00 0.00 0.00 0.00 0.00 0.00 0.00 0.00 0.00 0.00 0.00 0.00 0.00 0.01 0.02 0.03 0.02 0.01 0.01 0.00 0.00
0.06 0.05 0.05 0.05 0.05 0.04 0.03 0.03 0.03 0.03 0.03 0.03 0.01 0.00 0.00 0.00 0.00 0.00 0.00 0.00 0.00 0.00 0.00 0.00 0.00 0.00 0.00 0.00 0.01 0.01 0.01 0.01 0.01 0.01 0.00 0.00 0.00 0.00
0.05 0.04 0.03 0.02 0.01 0.02 0.01 0.01 0.02 0.02 0.01 0.00 0.00 0.00 0.00 0.00 0.00 0.00 0.00 0.00 0.00 0.00 0.00 0.00 0.00 0.00 0.00 0.00 0.00 0.00 0.00 0.00 0.00 0.00 0.00 0.00 0.00 0.00
0.03 0.02 0.02 0.01 0.00 0.00 0.00 0.00 0.00 0.00 0.00 0.00 0.00 0.00 0.00 0.00 0.00 0.00 0.00 0.00 0.00 0.00 0.00 0.00 0.00 0.00 0.00 0.00 0.00 0.00 0.00 0.00 0.00 0.00 0.00 0.00 0.00 0.00
0.03 0.03 0.01 0.01 0.01 0.00 0.00 0.00 0.00 0.00 0.00 0.00 0.00 0.00 0.00 0.00 0.00 0.00 0.00 0.00 0.00 0.00 0.00 0.00 0.00 0.00 0.00 0.00 0.00 0.00 0.00 0.00 0.00 0.00 0.00 0.00 0.00 0.00
0.01 0.00 0.00 0.00 0.00 0.00 0.00 0.00 0.00 0.00 0.00 0.00 0.00 0.00 0.00 0.00 0.00 0.00 0.00 0.00 0.00 0.00 0.00 0.00 0.00 0.00 0.00 0.00 0.00 0.00 0.00 0.00 0.00 0.00 0.00 0.00 0.00 0.00
0.00 0.00 0.00 0.00 0.00 0.00 0.00 0.00 0.00 0.00 0.00 0.00 0.00 0.00 0.00 0.00 0.00 0.00 0.00 0.00 0.00 0.00 0.00 0.00 0.00 0.00 0.00 0.00 0.00 0.00 0.00 0.00 0.00 0.00 0.00 0.00 0.00 0.00
0.00 0.00 0.00 0.00 0.00 0.00 0.00 0.00 0.00 0.00 0.00 0.00 0.00 0.00 0.00 0.00 0.00 0.00 0.00 0.00 0.00 0.00 0.00 0.00 0.00 0.00 0.00 0.00 0.00 0.00 0.00 0.00 0.00 0.00 0.00 0.01 0.00 0.00
0.00 0.00 0.00 0.00 0.00 0.00 0.00 0.00 0.00 0.00 0.00 0.00 0.00 0.00 0.00 0.00 0.00 0.00 0.00 0.00 0.00 0.00 0.00 0.00 0.00 0.00 0.00 0.00 0.00 0.00 0.00 0.00 0.00 0.00 0.00 0.00 0.00 0.00
0.00 0.00 0.00 0.00 0.00 0.00 0.00 0.00 0.00 0.00 0.00 0.00 0.00 0.00 0.00 0.00 0.00 0.00 0.00 0.00 0.00 0.00 0.00 0.00 0.00 0.00 0.00 0.00 0.00 0.00 0.00 0.00 0.00 0.00 0.00 0.00 0.00 0.00
0.00 0.00 0.00 0.00 0.00 0.00 0.00 0.00 0.00 0.00 0.00 0.00 0.00 0.00 0.00 0.00 0.00 0.00 0.00 0.00 0.00 0.00 0.00 0.00 0.00 0.00 0.00 0.00 0.00 0.00 0.00 0.00 0.00 0.00 0.00 0.00 0.00 0.00
0.00 0.00 0.00 0.00 0.00 0.00 0.00 0.00 0.00 0.00 0.00 0.00 0.00 0.00 0.00 0.00 0.00 0.00 0.00 0.00 0.00 0.00 0.00 0.00 0.00 0.00 0.00 0.00 0.00 0.00 0.00 0.00 0.00 0.00 0.00 0.00 0.00 0.00
0.00 0.00 0.00 0.00 0.00 0.00 0.00 0.00 0.00 0.00 0.00 0.00 0.00 0.00 0.00 0.00 0.00 0.00 0.00 0.00 0.00 0.00 0.00 0.00 0.00 0.00 0.00 0.00 0.00 0.00 0.00 0.00 0.00 0.00 0.00 0.00 0.00 0.00
0.00 0.00 0.00 0.00 0.00 0.00 0.00 0.00 0.00 0.00 0.00 0.00 0.00 0.00 0.00 0.00 0.00 0.00 0.00 0.00 0.00 0.00 0.00 0.00 0.00 0.00 0.00 0.00 0.00 0.00 0.00 0.00 0.00 0.00 0.00 0.00 0.00 0.00
0.00 0.00 0.00 0.00 0.00 0.00 0.00 0.00 0.00 0.00 0.00 0.00 0.00 0.00 0.00 0.00 0.00 0.00 0.00 0.00 0.00 0.00 0.00 0.00 0.00 0.00 0.00 0.00 0.00 0.00 0.00 0.00 0.00 0.00 0.00 0.00 0.00 0.00
0.00 0.00 0.00 0.00 0.00 0.00 0.00 0.00 0.00 0.00 0.00 0.00 0.00 0.00 0.00 0.00 0.00 0.00 0.00 0.00 0.00 0.00 0.00 0.00 0.00 0.00 0.00 0.00 0.00 0.00 0.00 0.00 0.00 0.00 0.00 0.00 0.00 0.00
0.00 0.00 0.00 0.00 0.00 0.00 0.00 0.00 0.00 0.00 0.00 0.00 0.00 0.00 0.00 0.00 0.00 0.00 0.00 0.00 0.00 0.00 0.00 0.00 0.00 0.00 0.00 0.00 0.00 0.00 0.00 0.00 0.00 0.00 0.00 0.00 0.00 0.00
0.00 0.00 0.00 0.00 0.00 0.00 0.00 0.00 0.00 0.00 0.00 0.00 0.00 0.00 0.00 0.00 0.00 0.00 0.00 0.00 0.00 0.00 0.00 0.00 0.00 0.00 0.00 0.00 0.00 0.00 0.00 0.00 0.00 0.00 0.00 0.00 0.00 0.00
MSLP
1007.60 1008.06 1008.37 1008.71 1009.25 1009.78 1010.05 1010.30 1010.60 1010.74 1011.30 1012.00 1012.41 1013.06 1013.57 1013.90 1014.00 1014.49 1014.94 1015.23 1015.71 1016.16 1016.69 1017.20 1017.51 1017.85 1018.16 1018.57 1018.98 1019.40 1019.77 1020.22 1020.57 1020.81 1020.87 1021.42 1021.62 1022.24
1007.16 1007.78 1008.12 1008.49 1008.89 1009.31 1009.70 1010.03 1010.13 1010.29 1010.40 1010.58 1011.18 1011.74 1012.23 1012.86 1013.40 1013.89 1014.15 1014.62 1015.02 1015.44 1015.73 1016.23 1016.77 1017.15 1017.47 1017.92 1018.29 1018.69 1018.99 1019.34 1019.78 1020.06 1020.44 1020.72 1021.35 1021.82
1006.41 1007.14 1007.55 1007.97 1008.45 1009.09 1009.49 1009.69 1009.98 1010.30 1010.48 1010.18 1010.51 1011.14 1011.99 1012.34 1012.76 1013.18 1013.52 1013.91 1014.19 1014.87 1015.17 1015.37 1015.80 1016.25 1016.70 1017.12 1017.60 1017.95 1018.27 1018.61 1019.00 1019.40 1019.87 1020.40 1020.95 1021.41
1005.81 1006.63 1007.15 1007.64 1008.01 1008.58 1009.13 1009.47 1009.69 1010.03 1010.33 1010.10 1010.31 1011.02 1011.32 1011.81 1012.32 1012.77 1013.13 1013.43 1013.56 1013.70 1014.26 1014.69 1014.79 1015.12 1015.58 1016.04 1016.46 1017.05 1017.50 1017.89 1018.26 1018.80 1019.42 1020.00 1020.56 1021.21
1004.93 1005.76 1006.50 1007.46 1007.91 1008.29 1008.70 1009.02 1009.32 1009.81 1010.14 1010.33 1010.13 1010.71 1011.30 1012.08 1012.53 1013.03 1013.29 1013.51 1013.76 1013.80 1013.93 1013.91 1014.24 1014.34 1014.65 1015.11 1015.65 1016.04 1016.52 1016.96 1017.51 1018.10 1018.95 1019.60 1020.25 1021.07
1004.47 1005.31 1005.33 1006.71 1007.55 1007.88 1008.17 1008.50 1008.93 1009.35 1009.61 1009.74 1010.07 1010.74 1011.62 1012.22 1012.85 1013.29 1013.64 1013.71 1013.79 1013.90 1013.95 1013.93 1013.78 1013.75 1013.66 1014.06 1014.66 1015.28 1015.81 1016.51 1016.97 1017.62 1018.49 1019.36 1020.17 1020.95
1004.44 1005.12 1005.63 1005.74 1007.09 1007.53 1007.85 1008.14 1008.50 1008.86 1009.10 1009.29 1009.98 1011.07 1011.82 1012.54 1012.74 1012.75 1013.15 1013.30 1013.72 1014.01 1013.99 1013.75 1013.72 1013.49 1013.34 1013.36 1013.46 1014.25 1015.11 1016.05 1016.91 1017.75 1018.78 1019.73 1020.50 1021.46
1003.84 1004.62 1005.37 1006.04 1006.68 1007.21 1007.73 1008.19 1008.42 1008.50 1008.91 1009.56 1010.19 1010.66 1011.19 1011.50 1011.90 1012.19 1012.70 1013.57 1013.99 1013.49 1013.91 1014.27 1014.30 1013.95 1013.66 1012.77 1013.00 1013.63 1014.75 1015.55 1016.57 1017.64 1018.87 1019.98 1020.94 1021.76
1003.77 1004.02 1004.76 1005.49 1006.32 1006.98 1007.70 1008.30 1008.83 1009.28 1009.72 1010.00 1010.17 1010.23 1010.51 1010.79 1011.11 1011.56 1011.92 1012.50 1012.87 1013.22 1013.70 1014.71 1015.14 1015.15 1015.05 1014.31 1013.47 1014.14 1015.46 1016.20 1016.96 1018.06 1018.77 1020.30 1021.33 1022.07
1003.78 1004.15 1004.88 1006.08 1006.29 1006.79 1007.72 1008.64 1009.19 1009.68 1010.17 1010.52 1010.61 1010.75 1011.03 1011.09 1011.25 1010.92 1011.15 1012.33 1013.11 1013.56 1013.78 1014.79 1015.54 1016.11 1016.28 1016.40 1016.59 1015.49 1015.94 1016.37 1017.16 1018.67 1019.94 1020.88 1021.60 1022.38
1004.46 1005.34 1005.58 1006.20 1007.10 1007.14 1007.58 1008.76 1009.71 1010.32 1010.60 1010.87 1011.05 1011.24 1011.40 1011.23 1010.81 1011.15 1011.44 1012.31 1013.24 1013.70 1013.99 1014.50 1015.81 1016.61 1017.15 1017.50 1017.72 1017.41 1017.47 1016.86 1018.96 1019.38 1020.18 1021.51 1021.98 1022.87
1005.54 1006.78 1007.29 1007.54 1007.95 1008.02 1008.23 1008.86 1009.80 1010.46 1010.51 1010.94 1011.26 1011.34 1011.27 1010.99 1010.25 1010.32 1010.93 1011.67 1012.71 1013.67 1013.78 1014.56 1015.79 1016.34 1017.68 1018.31 1018.43 1018.72 1019.08 1018.37 1019.69 1020.08 1021.00 1021.91 1022.32 1023.32
1007.06 1007.96 1008.61 1008.69 1008.62 1008.77 1008.87 1009.14 1010.03 1010.52 1010.80 1011.12 1011.37 1011.62 1011.69 1011.67 1011.36 1011.12 1011.46 1011.64 1012.34 1012.91 1013.34 1013.81 1015.28 1016.14 1016.78 1018.04 1018.91 1019.25 1019.65 1019.52 1020.28 1021.12 1021.71 1022.01 1022.53 1023.31
1008.06 1009.19 1009.34 1009.43 1009.39 1009.60 1009.64 1010.17 1010.48 1010.56 1010.82 1011.35 1011.69 1012.18 1012.54 1012.62 1012.53 1012.59 1012.56 1012.64 1012.63 1012.67 1013.19 1013.42 1014.46 1015.40 1016.05 1017.68 1018.81 1019.74 1019.95 1020.10 1020.76 1021.33 1021.89 1022.34 1022.97 1023.48
1009.40 1010.00 1009.86 1010.40 1010.63 1010.76 1010.83 1011.04 1010.98 1011.11 1011.44 1011.84 1012.38 1012.91 1013.38 1013.36 1013.33 1013.46 1013.53 1013.57 1013.64 1013.63 1013.82 1013.96 1014.21 1015.27 1015.96 1016.63 1017.74 1019.44 1020.00 1020.70 1021.22 1021.71 1022.06 1022.48 1023.01 1023.41
1010.41 1010.98 1011.21 1011.13 1011.35 1011.36 1011.61 1011.91 1011.86 1012.08 1012.15 1012.32 1012.97 1013.59 1013.67 1013.49 1014.01 1014.17 1014.38 1014.37 1014.66 1015.05 1015.01 1014.81 1014.99 1015.54 1016.35 1017.14 1017.80 1019.06 1019.87 1020.26 1021.15 1021.69 1022.29 1022.82 1023.29 1023.55
1011.14 1011.47 1011.60 1011.75 1012.18 1012.45 1012.49 1012.77 1012.94 1012.91 1013.02 1013.34 1013.64 1013.86 1013.91 1014.15 1014.69 1014.86 1014.88 1015.09 1015.49 1016.21 1016.50 1016.53 1016.28 1016.41 1017.19 1017.87 1018.56 1019.40 1019.96 1020.54 1021.16 1021.82 1022.41 1022.91 1023.32 1023.41
1011.99 1012.33 1012.62 1012.91 1013.09 1013.46 1013.40 1013.55 1013.74 1013.83 1013.93 1014.08 1014.11 1014.32 1014.49 1014.66 1015.16 1015.46 1015.95 1015.61 1016.30 1016.90 1017.26 1017.53 1017.55 1017.63 1018.22 1019.16 1019.70 1019.99 1020.66 1021.06 1021.65 1022.18 1022.58 1022.75 1022.80 1022.71
1012.19 1012.81 1013.21 1013.39 1013.61 1013.75 1014.13 1014.24 1014.43 1014.69 1014.82 1014.93 1014.83 1014.89 1014.96 1015.31 1015.47 1016.01 1016.48 1016.61 1017.01 1017.43 1017.73 1018.02 1018.10 1018.42 1018.77 1019.85 1021.13 1021.33 1021.36 1021.77 1022.15 1022.56 1022.70 1022.68 1022.39 1022.47
1013.22 1013.70 1014.01 1014.20 1014.44 1014.52 1014.55 1014.68 1014.84 1015.13 1015.38 1015.48 1015.62 1015.69 1015.74 1015.76 1015.81 1016.15 1016.70 1017.36 1017.79 1018.16 1018.26 1018.53 1018.84 1019.18 1019.65 1020.30 1021.30 1022.71 1022.51 1022.36 1022.42 1022.65 1022.67 1022.67 1022.64 1023.15
1014.87 1014.81 1015.00 1015.23 1015.21 1015.26 1015.43 1015.58 1015.75 1015.91 1016.14 1016.23 1016.29 1016.84 1017.02 1016.91 1017.18 1017.20 1017.47 1018.02 1018.43 1018.95 1019.03 1019.23 1019.86 1019.95 1020.32 1020.73 1021.65 1022.57 1023.19 1023.04 1022.96 1022.86 1023.10 1022.93 1022.76 1022.73
1016.10 1016.26 1016.20 1016.05 1016.11 1016.25 1016.38 1016.44 1016.51 1016.67 1016.69 1017.01 1016.93 1017.50 1018.18 1017.54 1017.91 1017.78 1018.22 1018.67 1019.04 1019.33 1019.77 1020.10 1020.01 1019.72 1019.94 1020.78 1021.88 1022.51 1023.08 1023.69 1023.93 1023.94 1024.00 1024.01 1024.00 1023.42
1017.44 1017.44 1017.16 1017.04 1017.11 1017.26 1017.24 1017.18 1017.28 1017.30 1017.24 1017.47 1017.71 1018.40 1018.88 1018.14 1018.31 1018.64 1018.75 1019.09 1019.59 1019.69 1019.92 1020.20 1020.34 1020.30 1020.53 1021.10 1022.12 1022.89 1023.15 1023.27 1023.35 1023.70 1024.28 1024.46 1024.50 1024.48
Thickness
5662 5660 5660 5659 5657 5654 5652 5651 5644 5640 5638 5637 5634 5630 5625 5623 5621 5616 5611 5610 5606 5602 5596 5589 5585 5582 5579 5575 5571 5567 5564 5560 5557 5554 5552 5547 5546 5540
5659 5655 5655 5654 5652 5650 5648 5647 5647 5644 5640 5643 5639 5637 5628 5624 5619 5615 5612 5608 5605 5600 5597 5591 5583 5580 5576 5572 5569 5566 5562 5559 5555 5551 5546 5543 5538 5534
5655 5652 5650 5650 5647 5644 5642 5642 5640 5638 5634 5640 5639 5634 5628 5622 5616 5613 5609 5605 5601 5596 5592 5590 5585 5579 5575 5571 5566 5563 5560 5556 5552 5547 5541 5535 5531 5528
5651 5645 5645 5643 5641 5640 5637 5635 5635 5634 5629 5631 5633 5627 5625 5622 5617 5610 5604 5600 5598 5595 5591 5587 5586 5582 5577 5571 5567 5562 5557 5553 5548 5542 5535 5529 5524 5519
5649 5644 5640 5636 5633 5633 5631 5631 5630 5628 5624 5621 5626 5624 5618 5611 5607 5599 5595 5592 5589 5588 5585 5584 5581 5580 5576 5571 5565 5561 5556 5550 5544 5538 5529 5523 5517 5511
5642 5638 5639 5631 5627 5626 5626 5626 5625 5622 5620 5619 5618 5614 5607 5602 5595 5591 5586 5582 5581 5578 5576 5574 5574 5573 5573 5570 5564 5556 5552 5544 5539 5531 5524 5516 5509 5504
5629 5626 5625 5627 5618 5618 5618 5619 5618 5617 5616 5615 5610 5596 5592 5586 5585 5584 5581 5578 5572 5566 5564 5565 5564 5564 5564 5563 5562 5555 5548 5539 5530 5522 5513 5504 5499 5492
5621 5617 5613 5610 5609 5606 5606 5605 5606 5612 5609 5604 5599 5590 5590 5586 5582 5581 5575 5563 5565 5561 5555 5550 5548 5547 5550 5555 5553 5548 5539 5532 5523 5512 5502 5493 5488 5480
5609 5611 5610 5607 5601 5598 5594 5591 5590 5588 5586 5591 5592 5592 5589 5584 5580 5574 5569 5565 5563 5552 5546 5536 5528 5526 5525 5528 5537 5533 5523 5515 5508 5498 5493 5482 5476 5469
5597 5597 5595 5589 5589 5587 5583 5579 5577 5575 5576 5574 5574 5575 5571 5569 5566 5569 5565 5552 5543 5538 5533 5523 5510 5502 5500 5500 5499 5509 5506 5501 5495 5483 5474 5468 5464 5458
5576 5573 5578 5578 5570 5573 5574 5566 5562 5560 5561 5560 5560 5558 5555 5556 5557 5554 5550 5543 5533 5525 5520 5513 5496 5487 5482 5479 5478 5481 5481 5486 5470 5467 5461 5452 5449 5443
5561 5553 5551 5554 5552 5556 5560 5560 5555 5550 5552 5549 5547 5546 5545 5546 5550 5551 5544 5538 5526 5516 5511 5502 5487 5479 5465 5460 5459 5458 5456 5461 5452 5450 5443 5438 5435 5427
5542 5537 5535 5538 5542 5543 5544 5546 5541 5538 5537 5536 5535 5532 5531 5528 5530 5531 5528 5527 5520 5512 5503 5497 5481 5470 5464 5452 5443 5440 5436 5439 5435 5430 5427 5425 5420 5414
5527 5521 5524 5526 5528 5528 5530 5527 5526 5527 5527 5523 5520 5516 5512 5509 5510 5508 5507 5505 5504 5503 5495 5490 5480 5469 5461 5446 5436 5427 5426 5426 5420 5417 5413 5409 5403 5398
5507 5506 5511 5509 5508 5509 5510 5509 5511 5512 5511 5508 5504 5498 5494 5494 5494 5492 5489 5488 5485 5483 5480 5476 5472 5462 5455 5448 5437 5422 5417 5412 5407 5403 5400 5395 5389 5385
5490 5489 5490 5493 5493 5493 5493 5492 5494 5493 5493 5493 5487 5481 5481 5483 5477 5476 5473 5471 5467 5462 5460 5459 5455 5448 5441 5434 5429 5417 5409 5406 5397 5392 5385 5380 5374 5370
5478 5477 5477 5478 5476 5475 5477 5475 5475 5476 5475 5472 5469 5467 5467 5465 5460 5459 5457 5454 5448 5440 5436 5434 5434 5431 5424 5419 5412 5405 5399 5392 5386 5378 5371 5365 5360 5355
5463 5462 5461 5459 5459 5457 5458 5457 5457 5456 5455 5454 5453 5451 5450 5448 5444 5440 5434 5436 5429 5422 5417 5414 5413 5411 5406 5398 5392 5388 5381 5375 5368 5361 5356 5352 5349 5345
5454 5450 5448 5447 5446 5445 5442 5440 5439 5437 5436 5434 5434 5433 5432 5428 5426 5421 5416 5414 5409 5404 5401 5397 5396 5393 5390 5379 5368 5364 5361 5356 5350 5344 5340 5338 5338 5334
5435 5432 5429 5429 5427 5427 5427 5427 5425 5423 5420 5418 5416 5414 5413 5412 5409 5405 5400 5393 5388 5384 5382 5379 5376 5373 5368 5362 5352 5339 5337 5336 5335 5330 5329 5325 5322 5317
5410 5411 5411 5409 5410 5410 5409 5408 5406 5405 5403 5401 5399 5393 5390 5389 5385 5383 5379 5372 5366 5360 5358 5356 5351 5349 5345 5341 5334 5326 5319 5318 5317 5316 5313 5312 5313 5311
5390 5389 5391 5393 5393 5392 5391 5391 5391 5389 5388 5385 5385 5378 5369 5374 5371 5372 5367 5363 5358 5353 5347 5343 5342 5343 5340 5332 5321 5315 5310 5303 5300 5299 5297 5295 5294 5301
5369 5370 5373 5375 5375 5374 5374 5376 5375 5374 5374 5372 5369 5360 5354 5361 5358 5355 5353 5350 5344 5341 5337 5333 5331 5330 5328 5322 5313 5305 5301 5299 5296 5291 5283 5278 5275 5271